OPS 4682 DEB, 38394

Orbit data source: Space-Track

OPS 4682 DEB, 38394 is space debris in LEO originally from a launch on Sat, 03 Apr 1965 UTC launched from the Air Force Western Test Range (AFWTR). Debris objects in space refer to the collection of defunct objects orbiting the Earth. Examples of debris include non-operational satellites, rocket bodies, and fragments generated from explosions, collisions, or faulty payload assembly.

Loading next visibility...
Identifier
38394, 1965-027CX
Orbit
LEO
Country
Flag of USUS
Related business
Manufacturer
Unknown
Mission
Spacecraft
Bus & Motor
Unknown
Mass
Unknown
Launch date (UTC)
1965-04-03 (61 years ago)
Launch vehicle
Unknown
Launch site
Air Force Western Test Range (AFWTR)
Object type
Payload
Rocket body
Debris
Shape & HBR
Unknown shape, 0.1 m
Radar Cross Section
Medium (>0.1 m² and <1 m²)

Expand to show TLE details & history
Last TLE update: 19 hours ago

TLE from 19 hours ago
0 OPS 4682 DEB
1 38394U 65027CX  26174.87180691  .00000928  00000-0  30465-2 0  9996
2 38394  90.2695  24.4683 0035915 334.7717  25.1650 13.00109106 65586
Epoch: 2026-06-23T20:55Z
TLE epoch observation values (Epoch: 2026-06-23T20:55:24.117Z)
Latitude
0.00002°
Longitude
158.58066°
Altitude
1,239.722 km
Speed
7.247 km/s
True Right ascension
01h 37m 52s
True Declination
0° 00' 00"
Sunlit
Object was in daylight at epoch
Visualization orbit readout
Latitude
Unknown
Longitude
Unknown
Altitude
Unknown
Speed
Unknown
Apparent Right ascension
Unknown
Apparent Declination
Unknown
Sunlit
N/A
Visualization observer readout
Local Sidereal Time
03:13:39
Azimuth
Unknown
Elevation
Unknown
Doppler factor
Unknown
Orbital elements
Apogee altitude
1,286.214 km
Perigee altitude
1,231.358 km
Semi-major axis
7,636.923 km
Eccentricity
0.00359
Inclination
90.2695°
RAAN
24.4683°
Arg. of periapsis
334.7717°
True anomaly
25.34072°
Mean anomaly
25.165°
Eccentric anomaly
25.25279°
Mean motion
3.25211 °/min
Orbital period
110.7 mins
BSTAR
0.0030465
Loading maneuver chart data...
Computing Atmospheric mass density...
Loading historical data...
Loading historical data...
Loading historical data...
Loading historical data...
Loading historical data...
Loading historical data...
Loading historical data...

Documentation

Showing up to 5 results
|